• In Hungary
  • List of Countries
  • For 7 days
  • Water Temperature
  • Satellite Maps
  • Weather Map
  • News
  • Weather Widgets
  • user-avatar
    Login

    Hourly Weather Nizhneangarsk

    Today, 17 January, Wednesday

    Time Temperature Precipitation Wind Pressure Humidity
    00:00 -25°C° 0.1 mm 2 mps 713 mmHg 91%
    01:00 -25°C° 0 mm 2 mps 713 mmHg 92%
    02:00 -25°C° 0.1 mm 2 mps 712 mmHg 92%
    03:00 -25°C° 0.1 mm 2 mps 712 mmHg 92%
    04:00 -25°C° 0.1 mm 2 mps 712 mmHg 93%
    05:00 -25°C° 0 mm 2 mps 712 mmHg 92%
    06:00 -25°C° 0 mm 2 mps 712 mmHg 92%
    07:00 -25°C° 0 mm 2 mps 712 mmHg 92%
    08:00 -24°C° 0 mm 2 mps 712 mmHg 91%
    09:00 -23°C° 0 mm 2 mps 712 mmHg 90%
    10:00 -21°C° 0 mm 2 mps 711 mmHg 90%
    11:00 -21°C° 0 mm 2 mps 711 mmHg 89%
    12:00 -20°C° 0 mm 2 mps 711 mmHg 88%
    13:00 -19°C° 0 mm 2 mps 710 mmHg 88%
    14:00 -20°C° 0 mm 2 mps 710 mmHg 89%
    15:00 -21°C° 0 mm 2 mps 710 mmHg 90%
    16:00 -23°C° 0 mm 2 mps 710 mmHg 90%
    17:00 -21°C° 0.1 mm 2 mps 710 mmHg 91%
    18:00 -21°C° 0.1 mm 2 mps 710 mmHg 91%
    19:00 -20°C° 0.1 mm 2 mps 710 mmHg 92%
    20:00 -22°C° 0.2 mm 3 mps 709 mmHg 93%
    21:00 -21°C° 0.2 mm 3 mps 709 mmHg 94%
    22:00 -19°C° 0.2 mm 3 mps 708 mmHg 95%
    23:00 -18°C° 0.3 mm 3 mps 707 mmHg 95%

    Tomorrow, 18 January, Thursday

    Time Temperature Precipitation Wind Pressure Humidity
    00:00 -18°C° 0.3 mm 3 mps 707 mmHg 95%
    01:00 -17°C° 0.3 mm 3 mps 706 mmHg 94%
    02:00 -18°C° 0.2 mm 4 mps 706 mmHg 93%
    03:00 -17°C° 0.2 mm 4 mps 705 mmHg 92%
    04:00 -17°C° 0.2 mm 5 mps 705 mmHg 91%
    05:00 -18°C° 0.1 mm 6 mps 705 mmHg 89%
    06:00 -20°C° 0.1 mm 7 mps 705 mmHg 86%
    07:00 -21°C° 0.1 mm 8 mps 706 mmHg 84%
    08:00 -23°C° 0.1 mm 8 mps 706 mmHg 86%
    09:00 -24°C° 0.1 mm 8 mps 706 mmHg 87%
    10:00 -25°C° 0.1 mm 7 mps 706 mmHg 89%
    11:00 -26°C° 0 mm 6 mps 707 mmHg 88%
    12:00 -27°C° 0 mm 5 mps 708 mmHg 88%
    13:00 -28°C° 0 mm 5 mps 709 mmHg 87%
    14:00 -29°C° 0 mm 5 mps 710 mmHg 89%
    15:00 -31°C° 0 mm 5 mps 712 mmHg 91%
    16:00 -33°C° 0 mm 5 mps 714 mmHg 93%
    17:00 -33°C° 0 mm 4 mps 715 mmHg 94%
    18:00 -34°C° 0 mm 4 mps 716 mmHg 95%
    19:00 -35°C° 0 mm 4 mps 718 mmHg 95%
    20:00 -37°C° 0 mm 4 mps 718 mmHg 95%
    21:00 -38°C° 0 mm 4 mps 719 mmHg 95%
    22:00 -38°C° 0 mm 3 mps 720 mmHg 96%
    23:00 -39°C° 0 mm 3 mps 721 mmHg 94%

    Day after tomorrow, 19 January, Friday

    Time Temperature Precipitation Wind Pressure Humidity
    00:00 -40°C° 0 mm 3 mps 722 mmHg 93%
    01:00 -41°C° 0 mm 3 mps 723 mmHg 92%
    02:00 -41°C° 0 mm 3 mps 723 mmHg 89%
    03:00 -41°C° 0 mm 3 mps 724 mmHg 86%
    04:00 -41°C° 0 mm 3 mps 724 mmHg 83%
    05:00 -41°C° 0 mm 3 mps 725 mmHg 80%
    06:00 -41°C° 0 mm 3 mps 725 mmHg 77%
    07:00 -40°C° 0 mm 3 mps 725 mmHg 74%
    08:00 -37°C° 0 mm 2 mps 726 mmHg 75%
    09:00 -36°C° 0 mm 2 mps 726 mmHg 76%
    10:00 -34°C° 0 mm 2 mps 726 mmHg 76%
    11:00 -32°C° 0 mm 2 mps 726 mmHg 78%
    12:00 -31°C° 0 mm 2 mps 726 mmHg 80%
    13:00 -30°C° 0 mm 2 mps 725 mmHg 81%
    14:00 -32°C° 0 mm 2 mps 726 mmHg 82%
    15:00 -34°C° 0 mm 2 mps 726 mmHg 82%
    16:00 -35°C° 0 mm 2 mps 726 mmHg 83%
    17:00 -35°C° 0 mm 2 mps 726 mmHg 80%
    18:00 -35°C° 0 mm 2 mps 727 mmHg 78%
    19:00 -35°C° 0 mm 2 mps 727 mmHg 76%
    20:00 -35°C° 0 mm 2 mps 727 mmHg 77%
    21:00 -35°C° 0 mm 2 mps 727 mmHg 77%
    22:00 -34°C° 0 mm 2 mps 727 mmHg 78%
    23:00 -34°C° 0 mm 2 mps 727 mmHg 78%

    20 January, Saturday

    Time Temperature Precipitation Wind Pressure Humidity
    00:00 -34°C° 0 mm 2 mps 727 mmHg 79%
    01:00 -34°C° 0 mm 2 mps 727 mmHg 80%
    02:00 -35°C° 0 mm 3 mps 727 mmHg 80%
    03:00 -35°C° 0 mm 3 mps 727 mmHg 81%
    04:00 -36°C° 0 mm 3 mps 727 mmHg 81%
    05:00 -36°C° 0 mm 3 mps 728 mmHg 82%
    06:00 -36°C° 0 mm 3 mps 728 mmHg 82%
    07:00 -36°C° 0 mm 3 mps 728 mmHg 82%
    08:00 -35°C° 0 mm 3 mps 729 mmHg 82%
    09:00 -35°C° 0 mm 3 mps 729 mmHg 82%
    10:00 -34°C° 0 mm 3 mps 729 mmHg 83%
    11:00 -33°C° 0 mm 3 mps 729 mmHg 84%
    12:00 -33°C° 0 mm 3 mps 730 mmHg 86%
    13:00 -32°C° 0 mm 3 mps 730 mmHg 87%
    14:00 -34°C° 0 mm 3 mps 730 mmHg 89%
    15:00 -35°C° 0 mm 3 mps 731 mmHg 90%
    16:00 -38°C° 0 mm 3 mps 731 mmHg 91%
    17:00 -38°C° 0 mm 3 mps 732 mmHg 90%
    18:00 -39°C° 0 mm 3 mps 733 mmHg 88%
    19:00 -39°C° 0 mm 3 mps 733 mmHg 86%
    20:00 -40°C° 0 mm 3 mps 734 mmHg 85%
    21:00 -40°C° 0 mm 3 mps 734 mmHg 84%
    22:00 -40°C° 0 mm 3 mps 734 mmHg 84%
    23:00 -40°C° 0 mm 3 mps 735 mmHg 83%

    21 January, Sunday

    Time Temperature Precipitation Wind Pressure Humidity
    00:00 -40°C° 0 mm 3 mps 735 mmHg 82%
    01:00 -41°C° 0 mm 3 mps 735 mmHg 81%
    02:00 -41°C° 0 mm 3 mps 735 mmHg 80%
    03:00 -41°C° 0 mm 3 mps 736 mmHg 80%
    04:00 -41°C° 0 mm 3 mps 736 mmHg 79%
    05:00 -41°C° 0 mm 3 mps 736 mmHg 79%
    06:00 -41°C° 0 mm 3 mps 736 mmHg 79%
    07:00 -41°C° 0 mm 3 mps 737 mmHg 79%
    08:00 -40°C° 0 mm 3 mps 737 mmHg 80%
    09:00 -39°C° 0 mm 3 mps 737 mmHg 80%
    10:00 -36°C° 0 mm 3 mps 737 mmHg 81%
    11:00 -36°C° 0 mm 3 mps 737 mmHg 83%
    12:00 -35°C° 0 mm 3 mps 736 mmHg 85%
    13:00 -34°C° 0 mm 3 mps 736 mmHg 87%
    14:00 -35°C° 0 mm 3 mps 736 mmHg 87%
    15:00 -36°C° 0 mm 3 mps 736 mmHg 86%
    16:00 -39°C° 0 mm 3 mps 736 mmHg 86%
    17:00 -39°C° 0 mm 3 mps 736 mmHg 85%
    18:00 -38°C° 0 mm 3 mps 737 mmHg 83%
    19:00 -38°C° 0 mm 3 mps 737 mmHg 82%
    20:00 -38°C° 0 mm 3 mps 736 mmHg 84%
    21:00 -38°C° 0 mm 3 mps 736 mmHg 85%
    22:00 -38°C° 0 mm 3 mps 736 mmHg 86%
    23:00 -38°C° 0 mm 3 mps 736 mmHg 87%

    22 January, Monday

    Time Temperature Precipitation Wind Pressure Humidity
    00:00 -38°C° 0 mm 3 mps 736 mmHg 87%
    01:00 -38°C° 0 mm 3 mps 735 mmHg 88%
    02:00 -38°C° 0 mm 3 mps 735 mmHg 88%
    03:00 -38°C° 0 mm 3 mps 735 mmHg 88%
    04:00 -38°C° 0 mm 3 mps 734 mmHg 89%
    05:00 -38°C° 0 mm 3 mps 734 mmHg 89%
    06:00 -38°C° 0 mm 3 mps 734 mmHg 89%
    07:00 -38°C° 0 mm 3 mps 734 mmHg 90%
    08:00 -38°C° 0 mm 3 mps 734 mmHg 89%
    09:00 -36°C° 0 mm 3 mps 734 mmHg 89%
    10:00 -36°C° 0 mm 3 mps 733 mmHg 89%
    11:00 -35°C° 0 mm 3 mps 733 mmHg 90%
    12:00 -35°C° 0 mm 3 mps 732 mmHg 90%
    13:00 -34°C° 0 mm 3 mps 732 mmHg 90%
    14:00 -35°C° 0 mm 3 mps 732 mmHg 91%
    15:00 -36°C° 0 mm 3 mps 732 mmHg 91%
    16:00 -38°C° 0 mm 3 mps 732 mmHg 92%
    17:00 -38°C° 0 mm 3 mps 733 mmHg 91%
    18:00 -38°C° 0 mm 3 mps 733 mmHg 91%
    19:00 -38°C° 0 mm 3 mps 733 mmHg 90%
    20:00 -39°C° 0 mm 3 mps 733 mmHg 90%
    21:00 -39°C° 0 mm 3 mps 733 mmHg 90%
    22:00 -39°C° 0 mm 3 mps 733 mmHg 90%
    23:00 -39°C° 0 mm 3 mps 733 mmHg 89%
    Show more